Location: Belfast
(54.5830°N, 5.9330°W)
Time: 13:45:24
(UTC+01:00)

ISS - Pass Details

Date: 18 May 2018
Orbit: 402 x 407 km, 51.6° (Epoch: 22 May)

Event Time Altitude Azimuth Distance (km) Brightness Sun altitude
Exits shadow 03:53:48 - 271° (W) 2,209 -0.4 -9.0°
Reaches altitude 10° 03:55:40 10° 265° (W) 1,459 -1.4 -8.8°
Maximum altitude 03:58:46 41° 193° (SSW) 597 -3.4 -8.5°
Drops below altitude 10° 04:01:52 10° 121° (ESE) 1,456 -0.9 -8.2°
Sets 04:04:00 0° 114° (ESE) 2,315 0.2 -8.1°
